Time,TemperatureF,DewpointF,PressureIn,WindDirection,WindDirectionDegrees,WindSpeedMPH,WindSpeedGustMPH,Humidity,HourlyPrecipIn,Conditions,Clouds,dailyrainin,SoftwareType,DateUTC
2013-01-11 00:03:00,40.0,23.0,-100.00,East,95,1.0,4.0,50,0.00,,,-99.99,,2013-01-11 05:03:00,
2013-01-11 00:13:00,40.0,23.0,-100.00,East,80,1.0,6.0,50,0.00,,,-99.99,,2013-01-11 05:13:00,
2013-01-11 00:22:00,40.0,23.0,-100.00,East,95,2.0,6.0,50,0.00,,,-99.99,,2013-01-11 05:22:00,
2013-01-11 00:33:00,40.0,23.0,-100.00,East,80,3.0,6.0,51,0.00,,,-99.99,,2013-01-11 05:33:00,
2013-01-11 00:43:00,40.0,23.0,-100.00,ESE,120,4.0,6.0,49,0.00,,,-99.99,,2013-01-11 05:43:00,
2013-01-11 00:52:00,41.0,23.0,-100.00,SE,130,3.0,6.0,49,0.00,,,-99.99,,2013-01-11 05:52:00,
2013-01-11 01:03:00,41.0,23.0,-100.00,SE,140,6.0,9.0,48,0.00,,,-99.99,,2013-01-11 06:03:00,
2013-01-11 01:12:00,41.0,23.0,-100.00,SE,140,5.0,9.0,48,0.00,,,-99.99,,2013-01-11 06:12:00,
2013-01-11 01:22:00,41.0,24.0,-100.00,SE,125,4.0,9.0,48,0.00,,,-99.99,,2013-01-11 06:22:00,
2013-01-11 01:32:00,41.0,23.0,-100.00,SE,125,6.0,12.0,47,0.00,,,-99.99,,2013-01-11 06:32:00,
2013-01-11 01:42:00,41.0,23.0,-100.00,SE,125,6.0,12.0,48,0.00,,,-99.99,,2013-01-11 06:42:00,
2013-01-11 01:52:00,41.0,23.0,-100.00,SE,125,4.0,9.0,48,0.00,,,-99.99,,2013-01-11 06:52:00,
2013-01-11 02:02:00,41.0,24.0,-100.00,SE,130,4.0,11.0,48,0.00,,,-99.99,,2013-01-11 07:02:00,
2013-01-11 02:12:00,42.0,24.0,-100.00,SE,125,6.0,11.0,48,0.00,,,-99.99,,2013-01-11 07:12:00,
2013-01-11 02:22:00,42.0,24.0,-100.00,ESE,120,4.0,11.0,48,0.00,,,-99.99,,2013-01-11 07:22:00,
2013-01-11 02:32:00,42.0,24.0,-100.00,SE,145,7.0,9.0,49,0.00,,,-99.99,,2013-01-11 07:32:00,
2013-01-11 02:42:00,42.0,24.0,-100.00,SE,145,6.0,11.0,48,0.00,,,-99.99,,2013-01-11 07:42:00,
2013-01-11 02:52:00,42.0,24.0,-100.00,SE,135,5.0,9.0,49,0.00,,,-99.99,,2013-01-11 07:52:00,
2013-01-11 03:02:00,42.0,24.0,-100.00,SE,140,6.0,10.0,48,0.00,,,-99.99,,2013-01-11 08:02:00,
2013-01-11 03:12:00,42.0,24.0,-100.00,SE,145,4.0,10.0,48,0.00,,,-99.99,,2013-01-11 08:12:00,
2013-01-11 03:22:00,42.0,24.0,-100.00,SE,130,6.0,10.0,49,0.00,,,-99.99,,2013-01-11 08:22:00,
2013-01-11 03:32:00,42.0,24.0,-100.00,SE,135,5.0,9.0,48,0.00,,,-99.99,,2013-01-11 08:32:00,
2013-01-11 03:42:00,42.0,25.0,-100.00,ESE,120,6.0,11.0,49,0.00,,,-99.99,,2013-01-11 08:42:00,
2013-01-11 03:52:00,42.0,24.0,-100.00,SE,125,6.0,12.0,48,0.00,,,-99.99,,2013-01-11 08:52:00,
2013-01-11 04:02:00,43.0,25.0,-100.00,ESE,120,4.0,12.0,48,0.00,,,-99.99,,2013-01-11 09:02:00,
2013-01-11 04:12:00,43.0,25.0,-100.00,SE,125,7.0,12.0,48,0.00,,,-99.99,,2013-01-11 09:12:00,
2013-01-11 04:23:00,43.0,25.0,-100.00,SSE,150,9.0,16.0,48,0.00,,,-99.99,,2013-01-11 09:23:00,
2013-01-11 04:32:00,43.0,25.0,-100.00,SE,145,7.0,13.0,49,0.00,,,-99.99,,2013-01-11 09:32:00,
2013-01-11 04:42:00,43.0,25.0,-100.00,ESE,110,7.0,17.0,49,0.00,,,-99.99,,2013-01-11 09:42:00,
2013-01-11 04:52:00,43.0,26.0,-100.00,SE,125,7.0,17.0,51,0.00,,,-99.99,,2013-01-11 09:52:00,
2013-01-11 05:02:00,43.0,26.0,-100.00,SE,135,8.0,13.0,51,0.00,,,-99.99,,2013-01-11 10:02:00,
2013-01-11 05:12:00,43.0,26.0,-100.00,SE,125,7.0,14.0,50,0.00,,,-99.99,,2013-01-11 10:12:00,
2013-01-11 05:22:00,43.0,26.0,-100.00,SE,145,9.0,12.0,51,0.00,,,-99.99,,2013-01-11 10:22:00,
2013-01-11 05:32:00,42.0,26.0,-100.00,SSE,150,8.0,13.0,52,0.00,,,-99.99,,2013-01-11 10:32:00,
2013-01-11 05:42:00,43.0,27.0,-100.00,SSE,155,7.0,12.0,53,0.00,,,-99.99,,2013-01-11 10:42:00,
2013-01-11 05:52:00,43.0,27.0,-100.00,SE,135,9.0,14.0,52,0.00,,,-99.99,,2013-01-11 10:52:00,
2013-01-11 06:03:00,43.0,27.0,-100.00,SE,130,11.0,14.0,52,0.00,,,-99.99,,2013-01-11 11:03:00,
2013-01-11 06:12:00,43.0,27.0,-100.00,SE,145,10.0,14.0,53,0.00,,,-99.99,,2013-01-11 11:12:00,
2013-01-11 06:22:00,43.0,27.0,-100.00,SE,140,9.0,17.0,53,0.00,,,-99.99,,2013-01-11 11:22:00,
2013-01-11 06:33:00,43.0,28.0,-100.00,SSE,150,7.0,14.0,54,0.00,,,-99.99,,2013-01-11 11:33:00,
2013-01-11 06:42:00,43.0,28.0,-100.00,SSE,155,7.0,12.0,54,0.00,,,-99.99,,2013-01-11 11:42:00,
2013-01-11 06:52:00,43.0,28.0,-100.00,SE,140,7.0,12.0,55,0.00,,,-99.99,,2013-01-11 11:52:00,
2013-01-11 07:03:00,43.0,28.0,-100.00,SE,135,8.0,11.0,54,0.00,,,-99.99,,2013-01-11 12:03:00,
2013-01-11 07:12:00,43.0,28.0,-100.00,SE,135,9.0,16.0,54,0.00,,,-99.99,,2013-01-11 12:12:00,
2013-01-11 07:22:00,43.0,29.0,-100.00,SE,140,7.0,14.0,56,0.00,,,-99.99,,2013-01-11 12:22:00,
2013-01-11 07:33:00,43.0,30.0,-100.00,SE,135,7.0,14.0,59,0.00,,,-99.99,,2013-01-11 12:33:00,
2013-01-11 07:42:00,43.0,31.0,-100.00,SE,140,9.0,12.0,62,0.00,,,-99.99,,2013-01-11 12:42:00,
2013-01-11 07:52:00,42.0,31.0,-100.00,SE,125,8.0,12.0,63,0.00,,,-99.99,,2013-01-11 12:52:00,
2013-01-11 08:03:00,43.0,31.0,-100.00,SE,125,9.0,17.0,64,0.00,,,-99.99,,2013-01-11 13:03:00,
2013-01-11 08:13:00,43.0,31.0,-100.00,SE,145,7.0,14.0,64,0.00,,,-99.99,,2013-01-11 13:13:00,
2013-01-11 08:22:00,43.0,32.0,-100.00,SSE,150,7.0,12.0,63,0.00,,,-99.99,,2013-01-11 13:22:00,
2013-01-11 08:33:00,44.0,32.0,-100.00,SE,130,8.0,16.0,63,0.00,,,-99.99,,2013-01-11 13:33:00,
2013-01-11 08:42:00,44.0,32.0,-100.00,SE,140,9.0,16.0,64,0.00,,,-99.99,,2013-01-11 13:42:00,
2013-01-11 08:52:00,44.0,33.0,-100.00,SE,130,6.0,12.0,64,0.00,,,-99.99,,2013-01-11 13:52:00,
2013-01-11 09:03:00,44.0,33.0,-100.00,SE,145,6.0,14.0,65,0.00,,,-99.99,,2013-01-11 14:03:00,
2013-01-11 09:12:00,45.0,34.0,-100.00,SE,140,7.0,12.0,65,0.00,,,-99.99,,2013-01-11 14:12:00,
2013-01-11 09:23:00,45.0,34.0,-100.00,SE,130,6.0,12.0,65,0.00,,,-99.99,,2013-01-11 14:23:00,
2013-01-11 09:33:00,45.0,35.0,-100.00,SSE,150,5.0,10.0,65,0.00,,,-99.99,,2013-01-11 14:33:00,
2013-01-11 09:43:00,45.0,35.0,-100.00,SE,145,9.0,13.0,66,0.00,,,-99.99,,2013-01-11 14:43:00,
2013-01-11 09:53:00,45.0,35.0,-100.00,SE,130,7.0,14.0,66,0.00,,,-99.99,,2013-01-11 14:53:00,
2013-01-11 10:03:00,45.0,35.0,-100.00,ESE,120,6.0,12.0,67,0.55,,,-99.99,,2013-01-11 15:03:00,
2013-01-11 10:13:00,45.0,36.0,-100.00,ESE,120,6.0,11.0,70,0.55,,,-99.99,,2013-01-11 15:13:00,
2013-01-11 10:23:00,44.0,36.0,-100.00,SE,140,1.0,11.0,72,0.00,,,-99.99,,2013-01-11 15:23:00,
2013-01-11 10:33:00,44.0,37.0,-100.00,SSW,200,2.0,7.0,75,0.55,,,-99.99,,2013-01-11 15:33:00,
2013-01-11 10:43:00,44.0,37.0,-100.00,SSE,160,4.0,6.0,77,0.00,,,-99.99,,2013-01-11 15:43:00,
2013-01-11 10:52:00,43.0,38.0,-100.00,SE,135,6.0,9.0,80,1.10,,,-99.99,,2013-01-11 15:52:00,
2013-01-11 11:03:00,43.0,38.0,-100.00,SSE,150,6.0,9.0,81,1.10,,,-99.99,,2013-01-11 16:03:00,
2013-01-11 11:12:00,43.0,38.0,-100.00,SE,140,7.0,9.0,83,0.55,,,-99.99,,2013-01-11 16:12:00,
2013-01-11 11:22:00,43.0,38.0,-100.00,SE,135,4.0,11.0,84,0.55,,,-99.99,,2013-01-11 16:22:00,
2013-01-11 11:33:00,43.0,39.0,-100.00,SE,145,5.0,11.0,85,0.55,,,-99.99,,2013-01-11 16:33:00,
2013-01-11 11:42:00,43.0,39.0,-100.00,SE,130,6.0,10.0,85,1.69,,,-99.99,,2013-01-11 16:42:00,
2013-01-11 11:52:00,43.0,39.0,-100.00,SSE,150,4.0,11.0,86,3.39,,,-99.99,,2013-01-11 16:52:00,
2013-01-11 12:03:00,43.0,40.0,-100.00,SE,135,4.0,9.0,86,0.00,,,-99.99,,2013-01-11 17:03:00,
2013-01-11 12:12:00,43.0,40.0,-100.00,SE,145,6.0,9.0,87,0.00,,,-99.99,,2013-01-11 17:12:00,
2013-01-11 12:22:00,43.0,40.0,-100.00,SSE,155,6.0,9.0,87,0.00,,,-99.99,,2013-01-11 17:22:00,
2013-01-11 12:33:00,43.0,40.0,-100.00,SE,145,6.0,12.0,88,0.00,,,-99.99,,2013-01-11 17:33:00,
2013-01-11 12:43:00,43.0,40.0,-100.00,SSE,160,4.0,7.0,88,0.00,,,-99.99,,2013-01-11 17:43:00,
2013-01-11 12:53:00,44.0,40.0,-100.00,SE,130,4.0,7.0,88,0.00,,,-99.99,,2013-01-11 17:53:00,
2013-01-11 13:04:00,44.0,41.0,-100.00,SSE,155,7.0,12.0,88,0.00,,,-99.99,,2013-01-11 18:04:00,
2013-01-11 13:13:00,44.0,41.0,-100.00,ESE,120,6.0,12.0,89,0.55,,,-99.99,,2013-01-11 18:13:00,
2013-01-11 13:23:00,45.0,42.0,-100.00,ESE,115,7.0,14.0,89,0.00,,,-99.99,,2013-01-11 18:23:00,
2013-01-11 13:33:00,46.0,44.0,-100.00,ESE,120,7.0,12.0,90,0.00,,,-99.99,,2013-01-11 18:33:00,
2013-01-11 13:43:00,47.0,44.0,-100.00,SE,145,8.0,16.0,89,0.00,,,-99.99,,2013-01-11 18:43:00,
2013-01-11 13:53:00,48.0,45.0,-100.00,SSE,150,9.0,19.0,89,0.00,,,-99.99,,2013-01-11 18:53:00,
2013-01-11 14:03:00,48.0,45.0,-100.00,SSE,150,11.0,19.0,89,0.00,,,-99.99,,2013-01-11 19:03:00,
2013-01-11 14:12:00,48.0,45.0,-100.00,SSE,150,7.0,13.0,89,0.00,,,-99.99,,2013-01-11 19:12:00,
2013-01-11 14:22:00,49.0,46.0,-100.00,South,180,9.0,12.0,88,0.00,,,-99.99,,2013-01-11 19:22:00,
2013-01-11 14:33:00,50.0,46.0,-100.00,South,170,6.0,13.0,88,0.00,,,-99.99,,2013-01-11 19:33:00,
2013-01-11 14:43:00,50.0,47.0,-100.00,SSE,155,6.0,12.0,88,0.00,,,-99.99,,2013-01-11 19:43:00,
2013-01-11 14:53:00,50.0,47.0,-100.00,SSE,160,5.0,10.0,88,0.00,,,-99.99,,2013-01-11 19:53:00,
2013-01-11 15:03:00,51.0,47.0,-100.00,SSE,155,6.0,9.0,88,0.00,,,-99.99,,2013-01-11 20:03:00,
2013-01-11 15:12:00,51.0,47.0,-100.00,SSE,155,6.0,9.0,87,0.00,,,-99.99,,2013-01-11 20:12:00,
2013-01-11 15:22:00,51.0,47.0,-100.00,South,170,5.0,10.0,87,0.00,,,-99.99,,2013-01-11 20:22:00,
2013-01-11 15:33:00,51.0,47.0,-100.00,South,180,1.0,6.0,87,0.00,,,-99.99,,2013-01-11 20:33:00,
2013-01-11 15:43:00,51.0,47.0,-100.00,SSE,150,2.0,3.0,87,0.00,,,-99.99,,2013-01-11 20:43:00,
2013-01-11 15:52:00,51.0,47.0,-100.00,SE,140,3.0,5.0,87,0.00,,,-99.99,,2013-01-11 20:52:00,
2013-01-11 16:03:00,51.0,48.0,-100.00,SSE,150,3.0,6.0,87,0.00,,,-99.99,,2013-01-11 21:03:00,
2013-01-11 16:12:00,51.0,48.0,-100.00,SSE,150,1.0,4.0,87,0.00,,,-99.99,,2013-01-11 21:12:00,
2013-01-11 16:23:00,51.0,48.0,-100.00,South,185,1.0,4.0,87,0.00,,,-99.99,,2013-01-11 21:23:00,
2013-01-11 16:33:00,51.0,48.0,-100.00,SSE,155,4.0,6.0,87,0.00,,,-99.99,,2013-01-11 21:33:00,
2013-01-11 16:42:00,52.0,48.0,-100.00,SE,145,4.0,7.0,87,0.00,,,-99.99,,2013-01-11 21:42:00,
2013-01-11 16:52:00,52.0,48.0,-100.00,SSE,150,4.0,7.0,87,0.00,,,-99.99,,2013-01-11 21:52:00,
2013-01-11 17:03:00,52.0,48.0,-100.00,SSE,150,4.0,8.0,87,0.00,,,-99.99,,2013-01-11 22:03:00,
2013-01-11 17:12:00,52.0,48.0,-100.00,SSE,150,3.0,6.0,87,0.00,,,-99.99,,2013-01-11 22:12:00,
2013-01-11 17:22:00,51.0,48.0,-100.00,SSE,165,4.0,6.0,87,0.00,,,-99.99,,2013-01-11 22:22:00,
2013-01-11 17:33:00,51.0,47.0,-100.00,SSE,155,3.0,8.0,87,0.00,,,-99.99,,2013-01-11 22:33:00,
2013-01-11 17:42:00,51.0,47.0,-100.00,SSE,150,3.0,6.0,87,0.00,,,-99.99,,2013-01-11 22:42:00,
2013-01-11 17:52:00,51.0,47.0,-100.00,SSE,155,0.0,3.0,87,0.00,,,-99.99,,2013-01-11 22:52:00,
2013-01-11 18:02:00,51.0,47.0,-100.00,South,170,2.0,3.0,87,0.00,,,-99.99,,2013-01-11 23:02:00,
2013-01-11 18:13:00,49.0,46.0,-100.00,SSE,160,3.0,5.0,87,0.00,,,-99.99,,2013-01-11 23:13:00,
2013-01-11 18:22:00,49.0,46.0,-100.00,SSE,165,2.0,4.0,88,0.00,,,-99.99,,2013-01-11 23:22:00,
2013-01-11 18:32:00,49.0,46.0,-100.00,SSE,150,1.0,4.0,88,0.00,,,-99.99,,2013-01-11 23:32:00,
2013-01-11 18:43:00,49.0,46.0,-100.00,SSE,160,0.0,3.0,89,0.00,,,-99.99,,2013-01-11 23:43:00,
2013-01-11 18:53:00,49.0,46.0,-100.00,SE,145,0.0,2.0,89,0.00,,,-99.99,,2013-01-11 23:53:00,
2013-01-11 19:02:00,49.0,46.0,-100.00,SSW,210,0.0,1.0,89,0.00,,,-99.99,,2013-01-12 00:02:00,
2013-01-11 19:12:00,50.0,47.0,-100.00,South,190,0.0,1.0,89,0.00,,,-99.99,,2013-01-12 00:12:00,
2013-01-11 19:23:00,49.0,46.0,-100.00,SW,215,0.0,1.0,89,0.00,,,-99.99,,2013-01-12 00:23:00,
2013-01-11 19:33:00,48.0,45.0,-100.00,SE,140,0.0,2.0,88,0.00,,,-99.99,,2013-01-12 00:33:00,
2013-01-11 19:43:00,48.0,45.0,-100.00,South,190,0.0,1.0,88,0.00,,,-99.99,,2013-01-12 00:43:00,
2013-01-11 19:52:00,48.0,45.0,-100.00,ENE,65,0.0,1.0,89,0.00,,,-99.99,,2013-01-12 00:52:00,
2013-01-11 20:02:00,48.0,45.0,-100.00,ENE,65,0.0,2.0,89,0.00,,,-99.99,,2013-01-12 01:02:00,
2013-01-11 20:12:00,49.0,46.0,-100.00,SSE,150,0.0,2.0,90,0.00,,,-99.99,,2013-01-12 01:12:00,
2013-01-11 20:22:00,49.0,47.0,-100.00,South,175,0.0,1.0,89,0.00,,,-99.99,,2013-01-12 01:22:00,
2013-01-11 20:33:00,49.0,46.0,-100.00,SSW,210,0.0,2.0,89,0.00,,,-99.99,,2013-01-12 01:33:00,
2013-01-11 20:43:00,49.0,46.0,-100.00,South,185,0.0,2.0,89,0.00,,,-99.99,,2013-01-12 01:43:00,
2013-01-11 20:52:00,47.0,44.0,-100.00,South,180,2.0,3.0,90,0.00,,,-99.99,,2013-01-12 01:52:00,
2013-01-11 21:02:00,47.0,45.0,-100.00,South,180,2.0,4.0,90,0.00,,,-99.99,,2013-01-12 02:02:00,
2013-01-11 21:12:00,48.0,46.0,-100.00,SSW,200,2.0,4.0,90,0.00,,,-99.99,,2013-01-12 02:12:00,
2013-01-11 21:22:00,48.0,46.0,-100.00,SE,140,1.0,3.0,90,0.00,,,-99.99,,2013-01-12 02:22:00,
2013-01-11 21:33:00,48.0,46.0,-100.00,SE,145,0.0,1.0,90,0.00,,,-99.99,,2013-01-12 02:33:00,
2013-01-11 21:43:00,48.0,46.0,-100.00,SSE,165,0.0,1.0,90,0.00,,,-99.99,,2013-01-12 02:43:00,
2013-01-11 21:53:00,48.0,45.0,-100.00,SSW,210,0.0,1.0,90,0.00,,,-99.99,,2013-01-12 02:53:00,
2013-01-11 22:03:00,47.0,44.0,-100.00,South,185,0.0,2.0,88,0.00,,,-99.99,,2013-01-12 03:03:00,
2013-01-11 22:12:00,47.0,44.0,-100.00,ESE,120,0.0,3.0,90,0.00,,,-99.99,,2013-01-12 03:12:00,
2013-01-11 22:22:00,46.0,43.0,-100.00,SSE,150,1.0,2.0,89,0.00,,,-99.99,,2013-01-12 03:22:00,
2013-01-11 22:33:00,46.0,44.0,-100.00,SSE,155,2.0,4.0,91,0.00,,,-99.99,,2013-01-12 03:33:00,
2013-01-11 22:43:00,47.0,44.0,-100.00,South,175,1.0,3.0,90,0.00,,,-99.99,,2013-01-12 03:43:00,
2013-01-11 22:52:00,46.0,44.0,-100.00,South,170,2.0,4.0,90,0.00,,,-99.99,,2013-01-12 03:52:00,
2013-01-11 23:02:00,45.0,42.0,-100.00,SSE,160,1.0,2.0,89,0.00,,,-99.99,,2013-01-12 04:02:00,
2013-01-11 23:12:00,46.0,44.0,-100.00,SSE,160,1.0,3.0,91,0.00,,,-99.99,,2013-01-12 04:12:00,
2013-01-11 23:22:00,45.0,43.0,-100.00,SSE,160,3.0,4.0,90,0.00,,,-99.99,,2013-01-12 04:22:00,
2013-01-11 23:32:00,46.0,44.0,-100.00,SSE,150,4.0,7.0,91,0.00,,,-99.99,,2013-01-12 04:32:00,
2013-01-11 23:42:00,47.0,44.0,-100.00,SSE,150,3.0,7.0,91,0.00,,,-99.99,,2013-01-12 04:42:00,
2013-01-11 23:52:00,47.0,44.0,-100.00,SSE,155,1.0,4.0,91,0.00,,,-99.99,,2013-01-12 04:52:00,